,,PA_Meas_PMT16A,,PR_Meas_QMR101_102,,RH_Meas_QMH101,,SR_Meas_QMS101,,TA_Meas_QMH101,,GenWind,,GenWind,
time,status,PA,status,PR,status,RH,status,SR,status,TA,status,DirAvg,status,SpdAvg,
2012-03-29, 00:00:05,VALID,921.2,VALID,0,VALID,97.595,VALID,0,VALID,20.3448,VALID,350,VALID,0.988281,
2012-03-29, 00:01:05,VALID,921.182,VALID,0,VALID,97.6102,VALID,0,VALID,20.3643,VALID,350,VALID,0.304688,
2012-03-29, 00:02:05,VALID,921.167,VALID,0,VALID,97.5873,VALID,0,VALID,20.3643,VALID,350,VALID,0.00195313,
2012-03-29, 00:03:05,VALID,921.162,VALID,0,VALID,97.6026,VALID,0,VALID,20.3643,VALID,350,VALID,0.210938,
2012-03-29, 00:04:05,VALID,921.175,VALID,0,VALID,97.595,VALID,0,VALID,20.3838,VALID,350,VALID,0.383203,
2012-03-29, 00:05:05,VALID,921.176,VALID,0,VALID,97.595,VALID,0,VALID,20.3643,VALID,350,VALID,0.291016,
2012-03-29, 00:06:05,VALID,921.141,VALID,0,VALID,97.6026,VALID,0,VALID,20.3643,VALID,350,VALID,0,
2012-03-29, 00:07:05,VALID,921.158,VALID,0,VALID,97.595,VALID,0,VALID,20.3433,VALID,350,VALID,0.0121094,
2012-03-29, 00:08:05,VALID,921.129,VALID,0,VALID,97.6026,VALID,0,VALID,20.3854,VALID,350,VALID,0.360156,
2012-03-29, 00:09:05,VALID,921.144,VALID,0,VALID,97.5873,VALID,0,VALID,20.3628,VALID,350,VALID,0.734766,
2012-03-29, 00:10:05,VALID,921.131,VALID,0,VALID,97.6102,VALID,0,VALID,20.3448,VALID,350,VALID,0.753906,
2012-03-29, 00:11:05,VALID,921.096,VALID,0,VALID,97.6102,VALID,0,VALID,20.3269,VALID,350,VALID,0.583984,
2012-03-29, 00:12:05,VALID,921.111,VALID,0,VALID,97.6026,VALID,0,VALID,20.2863,VALID,350,VALID,0.44375,
2012-03-29, 00:13:05,VALID,921.09,VALID,0,VALID,97.6178,VALID,0,VALID,20.2863,VALID,350,VALID,0.622656,
2012-03-29, 00:14:05,VALID,921.071,VALID,0,VALID,97.6026,VALID,0,VALID,20.2668,VALID,350,VALID,0.694531,
2012-03-29, 00:15:05,VALID,921.064,VALID,0,VALID,97.6026,VALID,0,VALID,20.2863,VALID,350,VALID,0.623438,
2012-03-29, 00:16:05,VALID,921.073,VALID,0,VALID,97.6026,VALID,0,VALID,20.3253,VALID,350,VALID,0.261328,
2012-03-29, 00:17:05,VALID,921.03,VALID,0,VALID,97.595,VALID,0,VALID,20.3464,VALID,350,VALID,0.00664063,
2012-03-29, 00:18:05,VALID,921.016,VALID,0,VALID,97.595,VALID,0,VALID,20.3448,VALID,350,VALID,0,
2012-03-29, 00:19:05,VALID,921.018,VALID,0,VALID,97.6102,VALID,0,VALID,20.3253,VALID,350,VALID,0.0992187,
2012-03-29, 00:20:05,VALID,921.006,VALID,0,VALID,97.6178,VALID,0,VALID,20.3253,VALID,350,VALID,0.611328,
2012-03-29, 00:21:05,VALID,921.009,VALID,0,VALID,97.6102,VALID,0,VALID,20.3058,VALID,350,VALID,0.562109,
2012-03-29, 00:22:05,VALID,921.002,VALID,0,VALID,97.6178,VALID,0,VALID,20.3058,VALID,350,VALID,0.324219,
2012-03-29, 00:23:05,VALID,920.974,VALID,0,VALID,97.6102,VALID,0,VALID,20.2863,VALID,350,VALID,0.328516,
2012-03-29, 00:24:05,VALID,920.979,VALID,0,VALID,97.6102,VALID,0,VALID,20.2863,VALID,350,VALID,0.122656,
2012-03-29, 00:25:05,VALID,920.933,VALID,0,VALID,97.595,VALID,0,VALID,20.2668,VALID,350,VALID,0.109766,
2012-03-29, 00:26:05,VALID,920.937,VALID,0,VALID,97.595,VALID,0,VALID,20.2473,VALID,350,VALID,0.270312,
2012-03-29, 00:27:05,VALID,920.881,VALID,0,VALID,97.6102,VALID,0,VALID,20.2684,VALID,350,VALID,0,
2012-03-29, 00:28:05,VALID,920.881,VALID,0,VALID,97.6102,VALID,0,VALID,20.2473,VALID,350,VALID,0,
2012-03-29, 00:29:05,VALID,920.836,VALID,0,VALID,97.6102,VALID,0,VALID,20.2278,VALID,350,VALID,0.0960938,
2012-03-29, 00:30:05,VALID,920.807,VALID,0,VALID,97.6255,VALID,0,VALID,20.2083,VALID,350,VALID,0.485156,
2012-03-29, 00:31:05,VALID,920.791,VALID,0,VALID,97.6026,VALID,0,VALID,20.2083,VALID,350,VALID,0.548047,
2012-03-29, 00:32:05,VALID,920.729,VALID,0,VALID,97.6026,VALID,0,VALID,20.2278,VALID,350,VALID,0.417969,
2012-03-29, 00:33:05,VALID,920.736,VALID,0,VALID,97.6178,VALID,0,VALID,20.2083,VALID,350,VALID,0.341016,
2012-03-29, 00:34:05,VALID,920.706,VALID,0,VALID,97.6255,VALID,0,VALID,20.1888,VALID,350,VALID,0.465234,
2012-03-29, 00:35:05,VALID,920.669,VALID,0,VALID,97.6407,VALID,0,VALID,20.1708,VALID,350,VALID,0.378516,
2012-03-29, 00:36:05,VALID,920.661,VALID,0,VALID,97.6331,VALID,0,VALID,20.1498,VALID,350,VALID,0,
2012-03-29, 00:37:05,VALID,920.641,VALID,0,VALID,97.6255,VALID,0,VALID,20.1693,VALID,350,VALID,0,
2012-03-29, 00:38:05,VALID,920.644,VALID,0,VALID,97.6178,VALID,0,VALID,20.1498,VALID,350,VALID,0,
2012-03-29, 00:39:05,VALID,920.608,VALID,0,VALID,97.6407,VALID,0,VALID,20.1693,VALID,350,VALID,0.275391,
2012-03-29, 00:40:05,VALID,920.6,VALID,0,VALID,97.6407,VALID,0,VALID,20.1693,VALID,350,VALID,0.188281,
2012-03-29, 00:41:05,VALID,920.569,VALID,0,VALID,97.6178,VALID,0,VALID,20.1693,VALID,350,VALID,0.386719,
2012-03-29, 00:42:05,VALID,920.557,VALID,0,VALID,97.6483,VALID,0,VALID,20.1498,VALID,350,VALID,0.489453,
2012-03-29, 00:43:05,VALID,920.514,VALID,0,VALID,97.656,VALID,0,VALID,20.1303,VALID,350,VALID,0.661328,
2012-03-29, 00:44:05,VALID,920.461,VALID,0,VALID,97.6255,VALID,0,VALID,20.1303,VALID,351,VALID,0.682813,
2012-03-29, 00:45:05,VALID,920.441,VALID,0,VALID,97.6331,VALID,0,VALID,20.0913,VALID,351,VALID,0.736328,
2012-03-29, 00:46:05,VALID,920.435,VALID,0,VALID,97.6255,VALID,0,VALID,20.0913,VALID,351,VALID,0.497656,
2012-03-29, 00:47:05,VALID,920.407,VALID,0,VALID,97.6483,VALID,0,VALID,20.0913,VALID,351,VALID,0.488281,
2012-03-29, 00:48:05,VALID,920.394,VALID,0,VALID,97.6483,VALID,0,VALID,20.0913,VALID,351,VALID,0.581641,
2012-03-29, 00:49:05,VALID,920.363,VALID,0,VALID,97.6407,VALID,0,VALID,20.0913,VALID,351,VALID,0.850391,
2012-03-29, 00:50:05,VALID,920.37,VALID,0,VALID,97.6331,VALID,0,VALID,20.1108,VALID,351,VALID,0.756641,
2012-03-29, 00:51:05,VALID,920.363,VALID,0,VALID,97.656,VALID,0,VALID,20.1108,VALID,351,VALID,0.567578,
2012-03-29, 00:52:05,VALID,920.363,VALID,0,VALID,97.6483,VALID,0,VALID,20.1108,VALID,351,VALID,0.619922,
2012-03-29, 00:53:05,VALID,920.332,VALID,0,VALID,97.656,VALID,0,VALID,20.0913,VALID,351,VALID,0.688281,
2012-03-29, 00:54:05,VALID,920.328,VALID,0,VALID,97.6331,VALID,0,VALID,20.0913,VALID,351,VALID,0.444531,
2012-03-29, 00:55:05,VALID,920.313,VALID,0,VALID,97.656,VALID,0,VALID,20.0703,VALID,351,VALID,0,
2012-03-29, 00:56:05,VALID,920.301,VALID,0,VALID,97.6407,VALID,0,VALID,20.0913,VALID,351,VALID,0,
2012-03-29, 00:57:05,VALID,920.292,VALID,0,VALID,97.656,VALID,0,VALID,20.1108,VALID,351,VALID,0,
2012-03-29, 00:58:05,VALID,920.3,VALID,0,VALID,97.6407,VALID,0,VALID,20.1303,VALID,351,VALID,0,
2012-03-29, 00:59:05,VALID,920.244,VALID,0,VALID,97.6712,VALID,0,VALID,20.1498,VALID,351,VALID,0,
2012-03-29, 01:00:05,VALID,920.263,VALID,0,VALID,97.656,VALID,0,VALID,20.1303,VALID,351,VALID,0,
2012-03-29, 01:01:05,VALID,920.237,VALID,0,VALID,97.656,VALID,0,VALID,20.1498,VALID,351,VALID,0,
2012-03-29, 01:02:05,VALID,920.225,VALID,0,VALID,97.6636,VALID,0,VALID,20.1888,VALID,351,VALID,0,
2012-03-29, 01:03:05,VALID,920.222,VALID,0,VALID,97.6636,VALID,0,VALID,20.2083,VALID,351,VALID,0,
2012-03-29, 01:04:05,VALID,920.205,VALID,0,VALID,97.656,VALID,0,VALID,20.2083,VALID,351,VALID,0,
2012-03-29, 01:05:05,VALID,920.151,VALID,0,VALID,97.6636,VALID,0,VALID,20.1873,VALID,351,VALID,0,
2012-03-29, 01:06:05,VALID,920.132,VALID,0,VALID,97.656,VALID,0,VALID,20.2293,VALID,351,VALID,0.282031,
2012-03-29, 01:07:05,VALID,920.148,VALID,0,VALID,97.6636,VALID,0,VALID,20.1693,VALID,351,VALID,0.412891,
2012-03-29, 01:08:05,VALID,920.127,VALID,0,VALID,97.656,VALID,0,VALID,20.1498,VALID,351,VALID,0.289063,
2012-03-29, 01:09:05,VALID,920.115,VALID,0,VALID,97.6636,VALID,0,VALID,20.1498,VALID,351,VALID,0.208984,
2012-03-29, 01:10:05,VALID,920.082,VALID,0,VALID,97.6712,VALID,0,VALID,20.1498,VALID,351,VALID,0,
2012-03-29, 01:11:05,VALID,920.068,VALID,0,VALID,97.6712,VALID,0,VALID,20.1498,VALID,351,VALID,0,
2012-03-29, 01:12:05,VALID,920.067,VALID,0,VALID,97.656,VALID,0,VALID,20.1498,VALID,351,VALID,0,
2012-03-29, 01:13:05,VALID,920.046,VALID,0,VALID,97.6483,VALID,0,VALID,20.1288,VALID,351,VALID,0,
2012-03-29, 01:14:05,VALID,920.056,VALID,0,VALID,97.6636,VALID,0,VALID,20.1303,VALID,351,VALID,0,
2012-03-29, 01:15:05,VALID,920.017,VALID,0,VALID,97.6712,VALID,0,VALID,20.1303,VALID,351,VALID,0,
2012-03-29, 01:16:05,VALID,919.956,VALID,0,VALID,97.6712,VALID,0,VALID,20.1498,VALID,351,VALID,0.116797,
2012-03-29, 01:17:05,VALID,919.946,VALID,0,VALID,97.6712,VALID,0,VALID,20.1693,VALID,351,VALID,0.310156,
2012-03-29, 01:18:05,VALID,919.901,VALID,0,VALID,97.656,VALID,0,VALID,20.1903,VALID,351,VALID,0.64375,
2012-03-29, 01:19:05,VALID,919.885,VALID,0,VALID,97.6788,VALID,0,VALID,20.1303,VALID,352,VALID,0.660156,
2012-03-29, 01:20:05,VALID,919.85,VALID,0,VALID,97.656,VALID,0,VALID,20.1693,VALID,352,VALID,0,
2012-03-29, 01:21:05,VALID,919.826,VALID,0,VALID,97.6636,VALID,0,VALID,20.2293,VALID,352,VALID,0,
2012-03-29, 01:22:05,VALID,919.821,VALID,0,VALID,97.6636,VALID,0,VALID,20.2083,VALID,352,VALID,0,
2012-03-29, 01:23:05,VALID,919.836,VALID,0,VALID,97.6712,VALID,0,VALID,20.2083,VALID,352,VALID,0,
2012-03-29, 01:24:05,VALID,919.801,VALID,0,VALID,97.6636,VALID,0,VALID,20.2278,VALID,352,VALID,0,
2012-03-29, 01:25:05,VALID,919.798,VALID,0,VALID,97.6636,VALID,0,VALID,20.2278,VALID,352,VALID,0,
2012-03-29, 01:26:05,VALID,919.792,VALID,0,VALID,97.6941,VALID,0,VALID,20.2278,VALID,352,VALID,0,
2012-03-29, 01:27:05,VALID,919.775,VALID,0,VALID,97.6941,VALID,0,VALID,20.2278,VALID,352,VALID,0,
2012-03-29, 01:28:05,VALID,919.769,VALID,0,VALID,97.6712,VALID,0,VALID,20.2278,VALID,352,VALID,0,
2012-03-29, 01:29:05,VALID,919.76,VALID,0,VALID,97.6865,VALID,0,VALID,20.2473,VALID,352,VALID,0,
2012-03-29, 01:30:05,VALID,919.754,VALID,0,VALID,97.6788,VALID,0,VALID,20.2473,VALID,352,VALID,0,
2012-03-29, 01:31:05,VALID,919.727,VALID,0,VALID,97.6865,VALID,0,VALID,20.2473,VALID,352,VALID,0,
2012-03-29, 01:32:05,VALID,919.697,VALID,0,VALID,97.6712,VALID,0,VALID,20.2278,VALID,352,VALID,0,
2012-03-29, 01:33:05,VALID,919.725,VALID,0,VALID,97.6788,VALID,0,VALID,20.2684,VALID,352,VALID,0,
2012-03-29, 01:34:05,VALID,919.695,VALID,0,VALID,97.6712,VALID,0,VALID,20.2473,VALID,352,VALID,0,
2012-03-29, 01:35:05,VALID,919.687,VALID,0,VALID,97.6941,VALID,0,VALID,20.2668,VALID,352,VALID,0,
2012-03-29, 01:36:05,VALID,919.658,VALID,0,VALID,97.6865,VALID,0,VALID,20.2668,VALID,352,VALID,0.439844,
2012-03-29, 01:37:05,VALID,919.644,VALID,0,VALID,97.6788,VALID,0,VALID,20.2473,VALID,352,VALID,0.166016,
2012-03-29, 01:38:05,VALID,919.653,VALID,0,VALID,97.6865,VALID,0,VALID,20.2863,VALID,352,VALID,0.269141,
2012-03-29, 01:39:05,VALID,919.621,VALID,0,VALID,97.6712,VALID,0,VALID,20.2668,VALID,352,VALID,0.264062,
2012-03-29, 01:40:05,VALID,919.625,VALID,0,VALID,97.6788,VALID,0,VALID,20.2473,VALID,352,VALID,0.420312,
2012-03-29, 01:41:05,VALID,919.631,VALID,0,VALID,97.6712,VALID,0,VALID,20.2263,VALID,352,VALID,0.491406,
2012-03-29, 01:42:05,VALID,919.599,VALID,0,VALID,97.6865,VALID,0,VALID,20.2278,VALID,352,VALID,0.597656,
2012-03-29, 01:43:05,VALID,919.593,VALID,0,VALID,97.6712,VALID,0,VALID,20.1693,VALID,352,VALID,0.484375,
2012-03-29, 01:44:05,VALID,919.575,VALID,0,VALID,97.6865,VALID,0,VALID,20.1888,VALID,352,VALID,0.353516,
2012-03-29, 01:45:05,VALID,919.565,VALID,0,VALID,97.6941,VALID,0,VALID,20.1693,VALID,352,VALID,0.0964844,
2012-03-29, 01:46:05,VALID,919.567,VALID,0,VALID,97.6865,VALID,0,VALID,20.1888,VALID,352,VALID,0,
2012-03-29, 01:47:05,VALID,919.526,VALID,0,VALID,97.6788,VALID,0,VALID,20.2083,VALID,352,VALID,0.236328,
2012-03-29, 01:48:05,VALID,919.544,VALID,0,VALID,97.6788,VALID,0,VALID,20.2083,VALID,352,VALID,0.389844,
2012-03-29, 01:49:05,VALID,919.509,VALID,0,VALID,97.6788,VALID,0,VALID,20.2278,VALID,352,VALID,0.271484,
2012-03-29, 01:50:05,VALID,919.499,VALID,0,VALID,97.6712,VALID,0,VALID,20.2278,VALID,352,VALID,0.0121094,
2012-03-29, 01:51:05,VALID,919.52,VALID,0,VALID,97.6712,VALID,0,VALID,20.2083,VALID,352,VALID,0,
2012-03-29, 01:52:05,VALID,919.491,VALID,0,VALID,97.6941,VALID,0,VALID,20.1873,VALID,352,VALID,0,
2012-03-29, 01:53:05,VALID,919.498,VALID,0,VALID,97.6636,VALID,0,VALID,20.2083,VALID,352,VALID,0.452344,
2012-03-29, 01:54:05,VALID,919.48,VALID,0,VALID,97.6636,VALID,0,VALID,20.1888,VALID,352,VALID,0.392969,
2012-03-29, 01:55:05,VALID,919.488,VALID,0,VALID,97.6865,VALID,0,VALID,20.1888,VALID,352,VALID,0.607031,
2012-03-29, 01:56:05,VALID,919.492,VALID,0,VALID,97.6788,VALID,0,VALID,20.2083,VALID,352,VALID,0.447656,
2012-03-29, 01:57:05,VALID,919.464,VALID,0,VALID,97.6865,VALID,0,VALID,20.2473,VALID,352,VALID,0.351563,
2012-03-29, 01:58:05,VALID,919.466,VALID,0,VALID,97.6865,VALID,0,VALID,20.2653,VALID,352,VALID,0.357031,
2012-03-29, 01:59:05,VALID,919.477,VALID,0,VALID,97.6941,VALID,0,VALID,20.2668,VALID,352,VALID,0.545313,
2012-03-29, 02:00:05,VALID,919.456,VALID,0,VALID,97.6865,VALID,0,VALID,20.2473,VALID,352,VALID,0.400391,
2012-03-29, 02:01:05,VALID,919.433,VALID,0,VALID,97.6788,VALID,0,VALID,20.2473,VALID,352,VALID,0.313281,
2012-03-29, 02:02:05,VALID,919.443,VALID,0,VALID,97.6788,VALID,0,VALID,20.2473,VALID,352,VALID,0.469922,
2012-03-29, 02:03:05,VALID,919.415,VALID,0,VALID,97.6865,VALID,0,VALID,20.2473,VALID,352,VALID,0.44375,
2012-03-29, 02:04:05,VALID,919.42,VALID,0,VALID,97.6865,VALID,0,VALID,20.2473,VALID,352,VALID,0.378125,
2012-03-29, 02:05:05,VALID,919.427,VALID,0,VALID,97.6865,VALID,0,VALID,20.2473,VALID,352,VALID,0.4,
2012-03-29, 02:06:05,VALID,919.385,VALID,0,VALID,97.6865,VALID,0,VALID,20.2278,VALID,352,VALID,0.614453,
2012-03-29, 02:07:05,VALID,919.439,VALID,0,VALID,97.6941,VALID,0,VALID,20.1888,VALID,352,VALID,0.530469,
2012-03-29, 02:08:05,VALID,919.407,VALID,0,VALID,97.6788,VALID,0,VALID,20.1888,VALID,352,VALID,0.266016,
2012-03-29, 02:09:05,VALID,919.435,VALID,0,VALID,97.6788,VALID,0,VALID,20.1693,VALID,352,VALID,0.252734,
2012-03-29, 02:10:05,VALID,919.43,VALID,0,VALID,97.6941,VALID,0,VALID,20.1678,VALID,352,VALID,0.00195313,
2012-03-29, 02:11:05,VALID,919.425,VALID,0,VALID,97.6941,VALID,0,VALID,20.1498,VALID,352,VALID,0.00507812,
2012-03-29, 02:12:05,VALID,919.424,VALID,0,VALID,97.6712,VALID,0,VALID,20.1303,VALID,352,VALID,0.54375,
2012-03-29, 02:13:05,VALID,919.401,VALID,0,VALID,97.6865,VALID,0,VALID,20.1303,VALID,352,VALID,0.274609,
2012-03-29, 02:14:05,VALID,919.411,VALID,0,VALID,97.6941,VALID,0,VALID,20.1498,VALID,352,VALID,0.242969,
2012-03-29, 02:15:05,VALID,919.421,VALID,0,VALID,97.6941,VALID,0,VALID,20.1888,VALID,352,VALID,0.130469,
2012-03-29, 02:16:05,VALID,919.381,VALID,0,VALID,97.6941,VALID,0,VALID,20.2083,VALID,352,VALID,0,
2012-03-29, 02:17:05,VALID,919.356,VALID,0,VALID,97.6788,VALID,0,VALID,20.2083,VALID,352,VALID,0,
2012-03-29, 02:18:05,VALID,919.344,VALID,0,VALID,97.6865,VALID,0,VALID,20.1888,VALID,352,VALID,0.00078125,
2012-03-29, 02:19:05,VALID,919.346,VALID,0,VALID,97.6941,VALID,0,VALID,20.1888,VALID,352,VALID,0.251172,
2012-03-29, 02:20:05,VALID,919.334,VALID,0,VALID,97.6865,VALID,0,VALID,20.1888,VALID,352,VALID,0.441016,
2012-03-29, 02:21:05,VALID,919.317,VALID,0,VALID,97.7017,VALID,0,VALID,20.1693,VALID,352,VALID,0.511328,
2012-03-29, 02:22:05,VALID,919.315,VALID,0,VALID,97.7093,VALID,0,VALID,20.1483,VALID,352,VALID,0.553906,
2012-03-29, 02:23:05,VALID,919.338,VALID,0,VALID,97.7093,VALID,0,VALID,20.1888,VALID,352,VALID,0.305078,
2012-03-29, 02:24:05,VALID,919.334,VALID,0,VALID,97.7017,VALID,0,VALID,20.1888,VALID,352,VALID,0.432813,
2012-03-29, 02:25:05,VALID,919.344,VALID,0,VALID,97.6865,VALID,0,VALID,20.2083,VALID,352,VALID,0.541797,
2012-03-29, 02:26:05,VALID,919.355,VALID,0,VALID,97.6865,VALID,0,VALID,20.1888,VALID,352,VALID,0.515625,
2012-03-29, 02:27:05,VALID,919.369,VALID,0,VALID,97.7093,VALID,0,VALID,20.1678,VALID,352,VALID,0.258984,
2012-03-29, 02:28:05,VALID,919.326,VALID,0,VALID,97.7169,VALID,0,VALID,20.2083,VALID,352,VALID,0.0808594,
2012-03-29, 02:29:05,VALID,919.355,VALID,0,VALID,97.7169,VALID,0,VALID,20.2083,VALID,352,VALID,0.162891,
2012-03-29, 02:30:05,VALID,919.335,VALID,0,VALID,97.7017,VALID,0,VALID,20.2083,VALID,352,VALID,0,
2012-03-29, 02:31:05,VALID,919.338,VALID,0,VALID,97.6941,VALID,0,VALID,20.2278,VALID,352,VALID,0.391797,
2012-03-29, 02:32:05,VALID,919.322,VALID,0,VALID,97.7017,VALID,0,VALID,20.2473,VALID,352,VALID,0.326562,
2012-03-29, 02:33:05,VALID,919.288,VALID,0,VALID,97.6788,VALID,0,VALID,20.2473,VALID,352,VALID,0.465234,
2012-03-29, 02:34:05,VALID,919.283,VALID,0,VALID,97.6941,VALID,0,VALID,20.2473,VALID,352,VALID,0.642969,
2012-03-29, 02:35:05,VALID,919.24,VALID,0,VALID,97.7017,VALID,0,VALID,20.2473,VALID,352,VALID,0.679297,
2012-03-29, 02:36:05,VALID,919.246,VALID,0,VALID,97.7017,VALID,0,VALID,20.2668,VALID,352,VALID,0.432813,
2012-03-29, 02:37:05,VALID,919.233,VALID,0,VALID,97.6941,VALID,0,VALID,20.2863,VALID,352,VALID,0.341016,
2012-03-29, 02:38:05,VALID,919.204,VALID,0,VALID,97.6941,VALID,0,VALID,20.2473,VALID,352,VALID,0.361328,
2012-03-29, 02:39:05,VALID,919.196,VALID,0,VALID,97.6865,VALID,0,VALID,20.2278,VALID,352,VALID,0.318359,
2012-03-29, 02:40:05,VALID,919.162,VALID,0,VALID,97.6865,VALID,0,VALID,20.2083,VALID,352,VALID,0.393359,
2012-03-29, 02:41:05,VALID,919.149,VALID,0,VALID,97.6865,VALID,0,VALID,20.2083,VALID,352,VALID,0.688281,
2012-03-29, 02:42:05,VALID,919.148,VALID,0,VALID,97.6788,VALID,0,VALID,20.2083,VALID,360,VALID,1.01211,
2012-03-29, 02:43:05,VALID,919.126,VALID,0,VALID,97.7017,VALID,0,VALID,20.2083,VALID,12,VALID,0.841797,
2012-03-29, 02:44:05,VALID,919.144,VALID,0,VALID,97.7093,VALID,0,VALID,20.2083,VALID,19,VALID,0.551562,
2012-03-29, 02:45:05,VALID,919.136,VALID,0,VALID,97.7093,VALID,0,VALID,20.1888,VALID,3,VALID,0.933984,
2012-03-29, 02:46:05,VALID,919.075,VALID,0,VALID,97.6788,VALID,0,VALID,20.1888,VALID,3,VALID,0.837891,
2012-03-29, 02:47:05,VALID,919.096,VALID,0,VALID,97.7169,VALID,0,VALID,20.1693,VALID,3,VALID,0.56875,
2012-03-29, 02:48:05,VALID,919.099,VALID,0,VALID,97.7169,VALID,0,VALID,20.1888,VALID,3,VALID,0.539063,
2012-03-29, 02:49:04,VALID,919.091,VALID,0,VALID,97.6941,VALID,0,VALID,20.1888,VALID,3,VALID,0.505469,
2012-03-29, 02:50:04,VALID,919.108,VALID,0,VALID,97.6941,VALID,0,VALID,20.1888,VALID,3,VALID,0.387891,
2012-03-29, 02:51:04,VALID,919.099,VALID,0,VALID,97.7093,VALID,0,VALID,20.1888,VALID,3,VALID,0.232031,
2012-03-29, 02:52:04,VALID,919.076,VALID,0,VALID,97.7017,VALID,0,VALID,20.1888,VALID,3,VALID,0.188281,
2012-03-29, 02:53:04,VALID,919.09,VALID,0,VALID,97.7017,VALID,0,VALID,20.1693,VALID,3,VALID,0.3625,
2012-03-29, 02:54:04,VALID,919.095,VALID,0,VALID,97.6941,VALID,0.107441,VALID,20.1483,VALID,3,VALID,0.188672,
2012-03-29, 02:55:04,VALID,919.084,VALID,0,VALID,97.7169,VALID,0.107441,VALID,20.1288,VALID,3,VALID,0,
2012-03-29, 02:56:04,VALID,919.098,VALID,0,VALID,97.7017,VALID,0,VALID,20.1693,VALID,3,VALID,0,
2012-03-29, 02:57:04,VALID,919.117,VALID,0,VALID,97.7246,VALID,0.107441,VALID,20.1693,VALID,3,VALID,0.00351562,
2012-03-29, 02:58:04,VALID,919.084,VALID,0,VALID,97.7169,VALID,0.107441,VALID,20.1873,VALID,3,VALID,0.199609,
2012-03-29, 02:59:04,VALID,919.075,VALID,0,VALID,97.7017,VALID,0,VALID,20.2068,VALID,3,VALID,0.0382813,
2012-03-29, 03:00:04,VALID,919.085,VALID,0,VALID,97.7017,VALID,0.107441,VALID,20.2052,VALID,3,VALID,0,
2012-03-29, 03:01:04,VALID,919.106,VALID,0,VALID,97.6865,VALID,0,VALID,20.2068,VALID,3,VALID,0,
2012-03-29, 03:02:04,VALID,919.107,VALID,0,VALID,97.7017,VALID,0,VALID,20.2263,VALID,3,VALID,0,
2012-03-29, 03:03:04,VALID,919.097,VALID,0,VALID,97.7093,VALID,0.107441,VALID,20.2068,VALID,3,VALID,0,
2012-03-29, 03:04:04,VALID,919.107,VALID,0,VALID,97.6865,VALID,0,VALID,20.2263,VALID,3,VALID,0.40625,
2012-03-29, 03:05:04,VALID,919.112,VALID,0,VALID,97.7093,VALID,0,VALID,20.2263,VALID,3,VALID,0,
2012-03-29, 03:06:04,VALID,919.07,VALID,0,VALID,97.7093,VALID,0.107441,VALID,20.2458,VALID,3,VALID,0,
2012-03-29, 03:07:04,VALID,919.062,VALID,0,VALID,97.7017,VALID,0.107441,VALID,20.2653,VALID,3,VALID,0.000390625,
2012-03-29, 03:08:04,VALID,919.072,VALID,0,VALID,97.7093,VALID,0.107441,VALID,20.2653,VALID,3,VALID,0.547266,
2012-03-29, 03:09:04,VALID,919.06,VALID,0,VALID,97.7017,VALID,0,VALID,20.2848,VALID,3,VALID,0.110156,
2012-03-29, 03:10:04,VALID,919.021,VALID,0,VALID,97.7017,VALID,0,VALID,20.3058,VALID,3,VALID,0,
2012-03-29, 03:11:04,VALID,919.003,VALID,0,VALID,97.7017,VALID,0,VALID,20.3058,VALID,3,VALID,0,
2012-03-29, 03:12:04,VALID,918.997,VALID,0,VALID,97.7093,VALID,0,VALID,20.3058,VALID,3,VALID,0,
2012-03-29, 03:13:04,VALID,919.018,VALID,0,VALID,97.7246,VALID,0,VALID,20.2863,VALID,3,VALID,0,
2012-03-29, 03:14:04,VALID,919.003,VALID,0,VALID,97.7169,VALID,0,VALID,20.2278,VALID,3,VALID,0.00703125,
2012-03-29, 03:15:04,VALID,918.983,VALID,0,VALID,97.7169,VALID,0,VALID,20.1888,VALID,3,VALID,0.0121094,
2012-03-29, 03:16:04,VALID,918.978,VALID,0,VALID,97.7017,VALID,0,VALID,20.1888,VALID,3,VALID,0,
2012-03-29, 03:17:04,VALID,918.973,VALID,0,VALID,97.7169,VALID,0,VALID,20.2083,VALID,3,VALID,0.123438,
2012-03-29, 03:18:04,VALID,918.966,VALID,0,VALID,97.6865,VALID,0,VALID,20.2098,VALID,3,VALID,0,
2012-03-29, 03:19:04,VALID,918.931,VALID,0,VALID,97.7322,VALID,0,VALID,20.2278,VALID,3,VALID,0,
2012-03-29, 03:20:04,VALID,918.914,VALID,0,VALID,97.7246,VALID,0,VALID,20.2293,VALID,3,VALID,0,
2012-03-29, 03:21:04,VALID,918.912,VALID,0,VALID,97.6941,VALID,0,VALID,20.2083,VALID,3,VALID,0,
2012-03-29, 03:22:04,VALID,918.918,VALID,0,VALID,97.7246,VALID,0,VALID,20.1888,VALID,3,VALID,0,
2012-03-29, 03:23:04,VALID,918.936,VALID,0,VALID,97.7169,VALID,0,VALID,20.1693,VALID,3,VALID,0,
2012-03-29, 03:24:04,VALID,918.907,VALID,0,VALID,97.7246,VALID,0,VALID,20.1888,VALID,3,VALID,0,
2012-03-29, 03:25:04,VALID,918.922,VALID,0,VALID,97.7017,VALID,0,VALID,20.1888,VALID,3,VALID,0,
2012-03-29, 03:26:04,VALID,918.906,VALID,0,VALID,97.7169,VALID,0,VALID,20.2083,VALID,3,VALID,0,
2012-03-29, 03:27:04,VALID,918.904,VALID,0,VALID,97.7322,VALID,0,VALID,20.2083,VALID,3,VALID,0,
2012-03-29, 03:28:04,VALID,918.892,VALID,0,VALID,97.7246,VALID,0,VALID,20.1708,VALID,3,VALID,0,
2012-03-29, 03:29:04,VALID,918.892,VALID,0,VALID,97.7246,VALID,0,VALID,20.1498,VALID,3,VALID,0,
2012-03-29, 03:30:04,VALID,918.901,VALID,0,VALID,97.7322,VALID,0,VALID,20.1303,VALID,3,VALID,0,
2012-03-29, 03:31:04,VALID,918.894,VALID,0,VALID,97.7017,VALID,0,VALID,20.1108,VALID,3,VALID,0.232812,
2012-03-29, 03:32:04,VALID,918.887,VALID,0,VALID,97.7322,VALID,0,VALID,20.1108,VALID,3,VALID,0.492578,
2012-03-29, 03:33:04,VALID,918.859,VALID,0,VALID,97.7246,VALID,0,VALID,20.1123,VALID,3,VALID,0.291016,
2012-03-29, 03:34:04,VALID,918.869,VALID,0,VALID,97.7322,VALID,0,VALID,20.1123,VALID,3,VALID,0.261719,
2012-03-29, 03:35:04,VALID,918.839,VALID,0,VALID,97.7169,VALID,0,VALID,20.0913,VALID,3,VALID,0.0792969,
2012-03-29, 03:36:04,VALID,918.84,VALID,0,VALID,97.7246,VALID,0,VALID,20.0718,VALID,3,VALID,0,
2012-03-29, 03:37:04,VALID,918.812,VALID,0,VALID,97.7246,VALID,0,VALID,20.0913,VALID,3,VALID,0,
2012-03-29, 03:38:04,VALID,918.831,VALID,0,VALID,97.7246,VALID,0,VALID,20.0913,VALID,3,VALID,0,
2012-03-29, 03:39:04,VALID,918.86,VALID,0,VALID,97.7398,VALID,0,VALID,20.1108,VALID,3,VALID,0,
2012-03-29, 03:40:04,VALID,918.841,VALID,0,VALID,97.7322,VALID,0,VALID,20.1303,VALID,3,VALID,0.323828,
2012-03-29, 03:41:04,VALID,918.836,VALID,0,VALID,97.7398,VALID,0,VALID,20.1318,VALID,3,VALID,0.170703,
2012-03-29, 03:42:04,VALID,918.848,VALID,0,VALID,97.7169,VALID,0,VALID,20.1303,VALID,3,VALID,0.0792969,
2012-03-29, 03:43:04,VALID,918.85,VALID,0,VALID,97.7474,VALID,0,VALID,20.1108,VALID,3,VALID,0,
2012-03-29, 03:44:04,VALID,918.858,VALID,0,VALID,97.7398,VALID,0,VALID,20.1303,VALID,3,VALID,0.316016,
2012-03-29, 03:45:04,VALID,918.863,VALID,0,VALID,97.7398,VALID,0,VALID,20.1108,VALID,3,VALID,0.138672,
2012-03-29, 03:46:04,VALID,918.849,VALID,0,VALID,97.7322,VALID,0,VALID,20.1108,VALID,3,VALID,0.335547,
2012-03-29, 03:47:04,VALID,918.873,VALID,0,VALID,97.7322,VALID,0,VALID,20.1108,VALID,3,VALID,0.501953,
2012-03-29, 03:48:04,VALID,918.82,VALID,0,VALID,97.7398,VALID,0,VALID,20.0913,VALID,3,VALID,0.0804688,
2012-03-29, 03:49:04,VALID,918.833,VALID,0,VALID,97.7322,VALID,0,VALID,20.1123,VALID,3,VALID,0.308594,